Home > Weather > Albury > Past weeks

Flag for Australia Weather for the Past 2 Weeks in Albury, New South Wales, Australia

Now
64 °F

Sunny.


Feels Like: 64 °F
Forecast: 40 / 59 °F
Wind: 22 mph from Northwest

Location: Albury Airport

Current Time: May 1, 2016 at 12:37:39 PM

Latest Report: May 1, 2016 at 12:00 PM


Visibility: N/A

Pressure: 29.89 "Hg

Humidity: 46%

Dew Point: 43 °F

Location of AlburyLocation

Historic Weather in Albury — Graph

°F

Albury Temperature Yesterday

Maximum temperature yesterday: 73 °F (at 2:00 PM)
Minimum temperature yesterday: 59 °F (at 8:00 PM)
Average temperature yesterday: 65 °F

High & Low Weather Summary for the Past Weeks

 TemperatureHumidityPressure
High82 °F (Apr 16, 1:00 PM)100% (Apr 18, 3:00 AM)30.48 "Hg (Apr 18, 3:00 AM)
Low45 °F (Apr 25, 6:00 AM)23% (Apr 23, 2:00 PM)29.71 "Hg (May 1, 3:00 AM)
Average62 °F67%30.17 "Hg
* Reported Apr 16 11:00 AM — May 1 11:00 AM, Albury, Weather by CustomWeather, © 2016

Note: Actual official high and low records may vary slightly from our data, if they occured in-between our weather recording intervals... More about our weather records

Advertising

Albury Weather History for the Previous 24 Hours

Scroll right to see more
 ConditionsComfort  
Time TempWeatherWind HumidityBarometerVisibility
11:00 AM
Sun, May 1
64 °FScattered clouds.22 mph49%29.89 "HgN/A
10:04 AM64 °FBroken clouds.18 mph64%29.89 "HgN/A
9:00 AM63 °FScattered clouds.18 mph73%29.89 "HgN/A
8:00 AM61 °FPartly sunny.12 mph83%29.86 "HgN/A
7:00 AM63 °FCloudy.10 mph83%29.83 "HgN/A
6:00 AM64 °FPartly sunny.18 mph88%29.77 "HgN/A
5:04 AM64 °FPassing clouds.13 mph88%29.77 "HgN/A
4:04 AM66 °FOvercast.20 mph88%29.77 "HgN/A
4:00 AM66 °FOvercast.20 mph88%29.77 "HgN/A
3:00 AM64 °FMostly cloudy.14 mph88%29.71 "HgN/A
2:00 AM57 °FPassing clouds.6 mph100%29.80 "HgN/A
1:05 AM57 °FClear.3 mph100%29.86 "Hg4 mi
12:01 AM57 °FPassing clouds.1 mph100%29.89 "HgN/A
11:00 PM
Sat, Apr 30
59 °FPassing clouds.2 mph100%29.92 "HgN/A
10:00 PM59 °FClear.5 mph94%29.95 "HgN/A
9:00 PM59 °FClear.3 mph94%29.98 "HgN/A
8:00 PM59 °FClear.No wind94%29.95 "HgN/A
7:00 PM63 °FClear.2 mph83%29.95 "HgN/A
6:00 PM64 °FClear.3 mph83%29.95 "HgN/A
5:00 PM70 °FClear.8 mph69%29.98 "HgN/A
4:00 PM72 °FScattered clouds.10 mph65%29.98 "HgN/A
3:00 PM73 °FBroken clouds.12 mph61%29.98 "HgN/A
2:00 PM73 °FPartly sunny.10 mph69%29.98 "HgN/A
1:00 PM72 °FMostly cloudy.8 mph73%30.01 "HgN/A
12:00 PM68 °FCloudy.7 mph78%30.04 "HgN/A
Weather by CustomWeather, © 2016

See weather overviewHow to use our weather pages